Home > Weather > Kathmandu > Past weeks

Flag for Nepal Past Weather in Kathmandu, Nepal — Yesterday and Last 2 Weeks

Now
70 °F

Light rain. Mostly cloudy.


Feels Like: 70 °F
Forecast: 66 / 78 °F
Wind: No wind

Location: Kathmandu Airport

Current Time: Jun 26, 2016 at 4:53:44 AM

Latest Report: Jun 26, 2016 at 3:35 AM


Visibility: 4 mi

Pressure: 29.92 "Hg (25.71 "Hg at 1305m altitude)

Humidity: 94%

Dew Point: 68 °F

Location of KathmanduLocation

Past Weather in Kathmandu — Graph

°F

Kathmandu Temperature Yesterday

Maximum temperature yesterday: 82 °F (at 1:05 PM)
Minimum temperature yesterday: 72 °F (at 12:05 AM)
Average temperature yesterday: 76 °F

High & Low Weather Summary for the Past Weeks

 TemperatureHumidityPressure
High84 °F (Jun 11, 3:05 PM)100% (Jun 12, 4:35 AM)29.98 "Hg (Jun 12, 4:35 AM)
Low64 °F (Jun 12, 4:35 AM)58% (Jun 11, 1:35 PM)29.68 "Hg (Jun 14, 2:35 PM)
Average75 °F82%29.84 "Hg
* Reported Jun 11 5:35 AM — Jun 26 3:35 AM, Kathmandu, Weather by CustomWeather, © 2016

Note: Actual official high and low records may vary slightly from our data, if they occured in-between our weather recording intervals... More about our weather records

Advertising

Kathmandu Weather History for the Previous 24 Hours

Scroll right to see more
 ConditionsComfort  
Time TempWeatherWind HumidityBarometerVisibility
3:35 AM
Sun, Jun 26
70 °FLight rain. Mostly cloudy.No wind94%29.92 "Hg4 mi
2:35 AM70 °FThunderstorms. Mostly cloudy.6 mph100%29.92 "Hg4 mi
1:35 AM72 °FPartly cloudy.6 mph94%29.95 "Hg4 mi
12:35 AM73 °FThunderstorms. Partly cloudy.6 mph89%29.95 "Hg4 mi
12:05 AM72 °FLight rain. Partly cloudy.No wind100%29.95 "Hg4 mi
11:35 PM
Sat, Jun 25
72 °FLight rain. Partly cloudy.1 mph94%29.95 "Hg4 mi
11:05 PM72 °FPartly cloudy.6 mph94%29.95 "Hg4 mi
10:35 PM73 °FPassing clouds.6 mph89%29.95 "Hg4 mi
10:05 PM73 °FPassing clouds.No wind89%29.95 "Hg4 mi
9:35 PM75 °FPassing clouds.5 mph83%29.92 "Hg4 mi
9:05 PM75 °FPassing clouds.3 mph83%29.92 "Hg4 mi
8:35 PM75 °FPassing clouds.2 mph83%29.89 "Hg4 mi
8:05 PM75 °FPassing clouds.2 mph83%29.89 "Hg4 mi
7:35 PM77 °FBroken clouds.6 mph79%29.89 "Hg4 mi
7:05 PM77 °FBroken clouds.6 mph79%29.86 "Hg4 mi
6:35 PM79 °FBroken clouds.3 mph74%29.86 "Hg4 mi
6:05 PM79 °FScattered clouds.3 mph74%29.86 "Hg5 mi
5:35 PM79 °FBroken clouds.2 mph74%29.86 "Hg5 mi
5:05 PM79 °FScattered clouds.2 mph74%29.86 "Hg5 mi
4:35 PM79 °FPartly sunny.2 mph74%29.86 "Hg5 mi
4:05 PM77 °FBroken clouds.2 mph79%29.86 "Hg5 mi
3:35 PM77 °FBroken clouds.3 mph79%N/A4 mi
3:05 PM75 °FBroken clouds.6 mph83%29.89 "Hg4 mi
2:35 PM75 °FThunderstorms. Broken clouds.7 mph83%29.89 "Hg3 mi
2:05 PM81 °FThunderstorms. Broken clouds.8 mph70%29.89 "Hg4 mi
1:35 PM79 °FRain. Broken clouds.10 mph74%29.89 "Hg4 mi
1:05 PM82 °FBroken clouds.7 mph66%29.92 "Hg4 mi
12:35 PM81 °FBroken clouds.5 mph70%29.92 "Hg5 mi
12:05 PM81 °FBroken clouds.5 mph70%29.95 "Hg5 mi
11:35 AM81 °FBroken clouds.3 mph70%29.95 "Hg5 mi
11:05 AM79 °FBroken clouds.3 mph70%29.95 "Hg5 mi
10:35 AM79 °FBroken clouds.3 mph70%29.95 "Hg5 mi
10:05 AM79 °FBroken clouds.3 mph70%29.95 "Hg5 mi
9:35 AM77 °FBroken clouds.3 mph79%29.95 "Hg5 mi
9:05 AM75 °FBroken clouds.5 mph83%29.95 "Hg4 mi
8:35 AM75 °FMild.3 mph83%29.95 "HgN/A
8:05 AM73 °FBroken clouds.2 mph89%29.95 "Hg4 mi
7:35 AM73 °FBroken clouds.No wind89%29.92 "Hg4 mi
7:05 AM72 °FBroken clouds.No wind88%29.92 "Hg4 mi
6:35 AM72 °FBroken clouds.No wind88%29.92 "Hg4 mi
6:05 AM72 °FBroken clouds.2 mph88%29.92 "Hg4 mi
5:35 AM72 °FPartly cloudy.2 mph88%29.89 "Hg4 mi
4:35 AM72 °FPartly cloudy.2 mph88%29.89 "Hg4 mi
Weather by CustomWeather, © 2016

See weather overviewHow to use our weather pages